Location: St. Andrews
(45.0670°N, 67.0330°W)
Time: 18:09:45
(UTC-03:00)

Amateur Radio Satellites - All Passes

Search period start: 04 May 2016 17:39
Search period end: 05 May 2016 17:39
Location: St. Andrews, 45.0670°N, 67.0330°W

Satellite Date Start Highest point End Downlink Frequencies (MHz)
Time Altitude Azimuth
CUSAT 1 04 May 17:41:20 17:42:30 11° 307° (NW) 17:43:44 437.405
Cubesat XI-IV 04 May 17:45:11 17:49:25 25° 62° (ENE) 17:53:39 437.490
M-CUBED/EXP-1 PRIME 04 May 17:50:55 17:53:17 14° 54° (NE) 17:55:38 437.505
SO-50 04 May 17:52:49 17:54:35 12° 253° (WSW) 17:56:19 436.795
BRITE-PL 04 May 17:55:45 17:59:51 26° 63° (ENE) 18:04:14 437.365/2234.400
AO-7 04 May 18:02:17 18:08:16 22° 269° (W) 18:14:19 29.400- 29.500
KKS-1 04 May 18:05:00 18:09:03 34° 292° (WNW) 18:13:05 437.445
AUBIESAT-1 04 May 18:07:23 18:10:11 16° 56° (NE) 18:12:56 437.475
STARS 04 May 18:16:17 18:20:32 47° 289° (WNW) 18:24:45 437.465
MOZHAYETS 4 04 May 18:21:53 18:26:02 35° 292° (WNW) 18:30:12
HO-68 04 May 18:31:34 18:35:11 15° 47° (NE) 18:38:47 435.675
Cosmos 2491 04 May 18:32:16 18:41:09 79° 80° (E) 18:49:55 435.465 / 435.565
HORYU 2 04 May 18:33:49 18:36:38 16° 268° (W) 18:39:28 437.375
CUBESAT XI-V 04 May 18:34:50 18:39:17 40° 97° (E) 18:43:43 437.345
CUTE-I 04 May 18:38:45 18:44:02 68° 72° (ENE) 18:49:19 437.470
DOVE 4 04 May 18:44:21 18:48:11 21° 62° (ENE) 18:52:05 437.250
YUBILEINY 04 May 18:45:56 18:53:49 40° 86° (E) 19:01:41 435.215
BEESAT 3 04 May 18:48:41 18:52:31 52° 120° (ESE) 18:56:23 437.485
GOMX 1 04 May 18:56:40 19:01:34 47° 70° (ENE) 19:06:44 467.674
BEESAT 2 04 May 18:59:53 19:03:37 40° 119° (ESE) 19:07:24 435.950
LilacSat-2 04 May 19:05:57 19:09:49 70° 258° (WSW) 19:13:42 437.200
NOAA 18 04 May 19:08:05 19:13:27 53° 259° (W) 19:18:51 137.9125
Cosmos 2504 04 May 19:12:58 19:14:21 11° 74° (ENE) 19:15:43 435.465 / 435.565
CINEMA 3 04 May 19:14:54 19:17:28 14° 59° (ENE) 19:20:01 145.822/145.860
NOAA 15 04 May 19:15:13 19:20:09 41° 262° (W) 19:25:10 137.62
PCSat 04 May 19:19:47 19:20:28 10° 336° (NNW) 19:21:09 145.827
M-CUBED/EXP-1 PRIME 04 May 19:22:29 19:27:13 89° 263° (W) 19:31:51 437.505
Cubesat XI-IV 04 May 19:24:00 19:29:10 51° 260° (W) 19:34:22 437.490
BRITE-PL 04 May 19:33:21 19:38:02 44° 263° (W) 19:43:08 437.365/2234.400
SEEDS 04 May 19:36:06 19:37:46 12° 61° (ENE) 19:39:25 437.485
AUBIESAT-1 04 May 19:39:31 19:44:10 73° 253° (WSW) 19:48:43 437.475
AO-85 04 May 19:52:18 19:55:27 16° 30° (NNE) 19:58:28 145.980
AAUSAT CUBESAT 2 04 May 20:04:03 20:06:12 14° 62° (ENE) 20:08:21 437.432
CUBESAT XI-V 04 May 20:12:40 20:16:27 24° 295° (WNW) 20:20:13 437.345
CANX-2 04 May 20:13:00 20:16:59 42° 71° (ENE) 20:20:58 2200.000
HO-68 04 May 20:14:31 20:21:33 63° 68° (ENE) 20:28:36 435.675
DOVE 4 04 May 20:20:18 20:25:23 60° 260° (W) 20:30:40 437.250
CUTE-I 04 May 20:21:09 20:24:35 17° 270° (W) 20:28:01 437.470
BEESAT 3 04 May 20:27:30 20:30:30 20° 320° (NW) 20:33:32 437.485
Cosmos 2491 04 May 20:30:28 20:36:58 24° 282° (WNW) 20:43:26 435.465 / 435.565
GOMX 1 04 May 20:35:43 20:39:52 25° 269° (W) 20:44:15 467.674
BEESAT 2 04 May 20:38:18 20:41:37 24° 317° (NW) 20:44:57 435.950
STRAND 1 04 May 20:40:26 20:45:32 63° 102° (ESE) 20:50:36 437.568
Oscar 11 04 May 20:41:00 20:43:34 16° 62° (ENE) 20:46:10 145.826/435.025
YUBILEINY 04 May 20:42:03 20:50:26 49° 287° (WNW) 20:58:51 435.215
PRISM 04 May 20:43:08 20:45:10 13° 91° (E) 20:47:11 437.425
CUTE 1.7 + AOD 2 04 May 20:45:08 20:49:21 84° 78° (ENE) 20:53:35 437.475
AIST 2 04 May 20:47:59 20:51:51 41° 118° (ESE) 20:55:46 435.215
CINEMA 3 04 May 20:48:52 20:53:54 87° 259° (W) 20:58:56 145.822/145.860
FUNcube-1 04 May 20:54:59 20:58:05 19° 64° (ENE) 21:01:10 145.935
Cosmos 2504 04 May 20:59:03 21:06:12 68° 94° (E) 21:13:19 435.465 / 435.565
M-CUBED/EXP-1 PRIME 04 May 21:00:55 21:02:17 11° 267° (W) 21:03:38 437.505
DELFI C3 04 May 21:01:45 21:03:01 11° 61° (ENE) 21:04:18 145.870
COMPASS 1 04 May 21:08:17 21:12:24 80° 78° (ENE) 21:16:34 437.405
SEEDS 04 May 21:08:44 21:12:54 73° 258° (WSW) 21:17:05 437.485
UWE-3 04 May 21:11:01 21:15:20 40° 70° (ENE) 21:19:34 435.000/436.395/437.385
CUBEBUG 2 04 May 21:22:27 21:27:10 73° 75° (ENE) 21:31:48 437.445
AO-85 04 May 21:32:02 21:36:55 71° 52° (NE) 21:41:20 145.980
RS-15 04 May 21:33:23 21:43:48 46° 109° (ESE) 21:54:45 29.354- 29.394
ZACube-1 04 May 21:36:54 21:41:16 49° 72° (ENE) 21:45:33 437.345
AAUSAT CUBESAT 2 04 May 21:37:09 21:41:13 60° 259° (W) 21:45:18 437.432
CANX-2 04 May 21:50:07 21:53:03 18° 268° (W) 21:55:59 2200.000
HO-68 04 May 22:03:49 22:09:44 27° 267° (W) 22:15:40 435.675
Oscar 11 04 May 22:15:01 22:19:16 58° 259° (W) 22:23:32 145.826/435.025
PRISM 04 May 22:16:44 22:20:51 59° 288° (WNW) 22:24:58 437.425
STRAND 1 04 May 22:20:40 22:24:14 19° 300° (WNW) 22:27:46 437.568
HUMSAT D 04 May 22:22:18 22:26:12 38° 71° (ENE) 22:30:06 437.325/437.525
AIST 2 04 May 22:26:59 22:30:29 26° 317° (NW) 22:34:00 435.215
FUNcube-1 04 May 22:29:38 22:34:00 50° 261° (W) 22:38:19 145.935
CINEMA 3 04 May 22:30:12 22:31:42 11° 274° (W) 22:33:12 145.822/145.860
DELFI C3 04 May 22:33:25 22:37:20 71° 258° (WSW) 22:41:18 145.870
AISAT 04 May 22:38:05 22:39:22 11° 58° (ENE) 22:40:40 437.250
UWE-3 04 May 22:48:14 22:51:54 23° 267° (W) 22:55:32 435.000/436.395/437.385
YUBILEINY 04 May 22:48:15 22:49:54 11° 312° (NW) 22:51:33 435.215
PCSat 04 May 22:50:16 22:53:01 14° 31° (NNE) 22:55:44 145.827
Cosmos 2504 04 May 22:54:39 23:00:15 24° 295° (WNW) 23:05:53 435.465 / 435.565
CUBEBUG 2 04 May 23:02:00 23:04:16 13° 271° (W) 23:06:30 437.445
ESTCUBE 1 04 May 23:02:46 23:06:21 24° 65° (ENE) 23:09:57 437.505/2401.250
CUBEBUG 1 04 May 23:06:43 23:09:49 19° 63° (ENE) 23:12:56 437.445
AO-85 04 May 23:14:06 23:16:41 15° 253° (WSW) 23:19:09 145.980
ZACube-1 04 May 23:14:45 23:17:48 18° 268° (W) 23:20:50 437.345
UNISAT 6 04 May 23:22:33 23:26:28 32° 96° (E) 23:30:19 437.425
50 SAT 04 May 23:24:10 23:27:17 27° 69° (ENE) 23:30:23 437.505
DX 1 04 May 23:28:25 23:32:08 28° 66° (ENE) 23:35:54 434.975-435.025
UKube-1 04 May 23:31:04 23:34:35 25° 65° (ENE) 23:38:09 .
VELOX 1 04 May 23:38:38 23:42:46 39° 69° (ENE) 23:46:55 145.980
TIGRISAT 04 May 23:39:10 23:43:20 46° 99° (E) 23:47:25 435.000
QB50P1 04 May 23:43:33 23:44:32 11° 88° (E) 23:45:31 145.935-145.965
RS-15 04 May 23:44:34 23:55:52 63° 314° (NW) 00:07:52 29.354- 29.394
SPROUT 04 May 23:56:55 00:00:22 24° 66° (ENE) 00:03:50 437.525
HUMSAT D 04 May 23:58:52 00:01:59 20° 267° (W) 00:05:05 437.325/437.525
ANTELSAT 05 May 00:04:27 00:08:48 89° 300° (WNW) 00:13:04 437.575/2403.000
AISAT 05 May 00:10:39 00:15:07 87° 80° (E) 00:19:38 437.250
NANOSAT C BR1 05 May 00:15:06 00:18:29 23° 94° (E) 00:21:50 145.865
AIST 1 05 May 00:22:36 00:26:17 28° 89° (E) 00:30:01
TISAT 1 05 May 00:23:53 00:26:20 15° 61° (ENE) 00:28:47 437.305
O/OREOS (USA 219) 05 May 00:28:59 00:33:22 46° 61° (ENE) 00:37:42 437.305
GONETS M04 05 May 00:30:25 00:38:34 43° 87° (E) 00:46:42
PCSat 05 May 00:32:21 00:37:42 53° 53° (NE) 00:42:59 145.827
ESTCUBE 1 05 May 00:38:49 00:42:58 37° 262° (W) 00:47:10 437.505/2401.250
CUBEBUG 1 05 May 00:41:31 00:45:45 48° 260° (W) 00:50:04 437.445
CUSAT 1 05 May 00:44:05 00:48:47 18° 60° (ENE) 00:53:48 437.405
JAS-2 05 May 00:49:37 00:53:56 15° 83° (E) 00:58:13 435.910
50 SAT 05 May 00:58:12 01:01:04 22° 265° (W) 01:03:57 437.505
UNISAT 6 05 May 00:59:31 01:03:04 25° 294° (WNW) 01:06:34 437.425
Cosmos 2499 05 May 00:59:47 01:05:49 32° 85° (E) 01:11:54 435.465 / 435.565
DX 1 05 May 01:04:25 01:08:16 30° 264° (W) 01:12:09 434.975-435.025
DUCHIFAT 1 05 May 01:05:50 01:10:05 77° 102° (ESE) 01:14:16 145.980
UKube-1 05 May 01:06:34 01:10:30 34° 263° (W) 01:14:28 .
QB50P2 05 May 01:09:23 01:13:40 84° 285° (WNW) 01:17:52 145.880/145.840
POLYITAN 1 05 May 01:11:36 01:15:51 83° 283° (WNW) 01:20:03 437.675
POPSAT HIP 1 05 May 01:13:35 01:17:51 81° 283° (WNW) 01:22:03 437.405
VELOX 1 05 May 01:15:54 01:19:22 22° 267° (W) 01:22:52 145.980
QB50P1 05 May 01:16:36 01:20:51 74° 285° (WNW) 01:25:02 145.935-145.965
TIGRISAT 05 May 01:16:41 01:19:41 19° 297° (WNW) 01:22:39 435.000
ITUPSAT 1 05 May 01:22:22 01:24:49 14° 58° (ENE) 01:27:14 437.325
BEESAT 3 05 May 01:28:17 01:29:34 11° 32° (NNE) 01:30:50 437.485
SWISSCUBE 05 May 01:29:40 01:32:51 18° 61° (ENE) 01:36:02 437.505
SPROUT 05 May 01:32:11 01:36:09 35° 263° (W) 01:40:10 437.525
BUGSAT 1 05 May 01:38:18 01:42:32 85° 102° (ESE) 01:46:40 437.445
ANTELSAT 05 May 01:44:01 01:44:48 10° 302° (WNW) 01:45:35 437.575/2403.000
DANDE 05 May 01:46:11 01:51:26 24° 67° (ENE) 01:57:28 436.750
NANOSAT C BR1 05 May 01:50:28 01:54:18 34° 291° (WNW) 01:58:05 145.865
TISAT 1 05 May 01:57:19 02:01:31 60° 259° (W) 02:05:46 437.305
AIST 1 05 May 02:00:09 02:03:50 27° 287° (WNW) 02:07:35
RS-15 05 May 02:01:14 02:11:23 32° 346° (NNW) 02:21:56 29.354- 29.394
BEESAT 05 May 02:01:23 02:05:33 31° 66° (ENE) 02:09:43 436.000
Oscar 19 05 May 02:05:00 02:09:11 24° 93° (E) 02:13:21 437.125/150
O/OREOS (USA 219) 05 May 02:09:11 02:12:25 19° 259° (W) 02:15:37 437.305
PCSat 05 May 02:16:23 02:20:46 25° 252° (WSW) 02:25:06 145.827
Gurwin Techsat 1B 05 May 02:19:01 02:21:38 14° 88° (E) 02:24:13 435.225
CUSAT 1 05 May 02:24:36 02:31:56 74° 78° (ENE) 02:40:01 437.405
GONETS M04 05 May 02:26:54 02:35:20 47° 288° (WNW) 02:43:46
JAS-2 05 May 02:32:16 02:40:08 73° 102° (ESE) 02:47:54 435.910
DUCHIFAT 1 05 May 02:43:35 02:45:11 12° 300° (WNW) 02:46:46 145.980
Cosmos 2499 05 May 02:51:50 02:58:36 48° 286° (WNW) 03:05:31 435.465 / 435.565
ITUPSAT 1 05 May 02:57:14 03:02:00 81° 256° (WSW) 03:06:48 437.325
BEESAT 3 05 May 03:04:10 03:08:06 59° 52° (NE) 03:12:00 437.485
SWISSCUBE 05 May 03:05:31 03:10:12 60° 259° (WSW) 03:14:55 437.505
BEESAT 2 05 May 03:16:00 03:19:54 48° 50° (NE) 03:23:45 435.950
BUGSAT 1 05 May 03:16:11 03:17:14 11° 301° (WNW) 03:18:16 437.445
DANDE 05 May 03:28:01 03:34:43 79° 262° (W) 03:42:52 436.750
KKS-1 05 May 03:28:30 03:32:25 31° 67° (ENE) 03:36:22 437.445
ITAMSAT 1 05 May 03:28:36 03:32:48 24° 94° (E) 03:36:58 435.822/435.867
AIST 2 05 May 03:30:47 03:31:54 11° 29° (NNE) 03:33:02 435.215
BEESAT 05 May 03:39:03 03:43:17 32° 264° (W) 03:47:33 436.000
STARS 05 May 03:39:21 03:42:45 22° 64° (ENE) 03:46:09 437.465
Oscar 19 05 May 03:43:45 03:48:44 47° 291° (WNW) 03:53:41 437.125/150
MOZHAYETS 4 05 May 03:48:43 03:52:43 31° 67° (ENE) 03:56:43
Gurwin Techsat 1B 05 May 03:56:54 04:02:15 83° 286° (WNW) 04:07:33 435.225
AO-7 05 May 04:06:25 04:12:58 25° 92° (E) 04:19:29 29.400- 29.500
CUSAT 1 05 May 04:07:40 04:13:34 26° 274° (W) 04:19:53 437.405
RS-15 05 May 04:17:52 04:28:34 34° 21° (NNE) 04:39:28 29.354- 29.394
JAS-2 05 May 04:18:04 04:24:28 29° 301° (WNW) 04:30:54 435.910
BEESAT 3 05 May 04:43:12 04:45:20 14° 250° (WSW) 04:47:29 437.485
YUBILEINY 05 May 04:53:22 04:59:50 22° 60° (ENE) 05:06:16 435.215
BEESAT 2 05 May 04:54:39 04:57:25 18° 248° (WSW) 05:00:10 435.950
KKS-1 05 May 05:05:03 05:08:58 29° 264° (W) 05:12:54 437.445
AIST 2 05 May 05:07:18 05:11:22 51° 50° (NE) 05:15:24 435.215
ITAMSAT 1 05 May 05:07:32 05:12:29 47° 291° (WNW) 05:17:25 435.822/435.867
DANDE 05 May 05:12:53 05:16:55 16° 276° (W) 05:21:20 436.750
STARS 05 May 05:14:39 05:18:51 42° 261° (W) 05:23:06 437.465
MOZHAYETS 4 05 May 05:25:53 05:29:52 29° 265° (W) 05:33:51
Gurwin Techsat 1B 05 May 05:38:51 05:41:22 14° 304° (NW) 05:43:53 435.225
CUBESAT XI-V 05 May 05:39:54 05:44:19 48° 72° (ENE) 05:48:48 437.345
Cosmos 2491 05 May 05:43:04 05:48:35 19° 75° (ENE) 05:54:04 435.465 / 435.565
AO-7 05 May 05:58:12 06:06:33 78° 291° (WNW) 06:14:52 29.400- 29.500
HORYU 2 05 May 06:20:37 06:25:04 82° 104° (ESE) 06:29:29 437.375
STRAND 1 05 May 06:21:43 06:24:50 16° 58° (ENE) 06:27:56 437.568
SO-50 05 May 06:27:09 06:30:33 19° 111° (ESE) 06:33:58 436.795
RS-15 05 May 06:31:19 06:43:38 73° 50° (NE) 06:55:58 29.354- 29.394
ISS 05 May 06:36:52 06:39:00 16° 134° (SE) 06:41:07 145.825
LilacSat-2 05 May 06:39:47 06:40:45 11° 89° (E) 06:41:42 437.200
AIST 2 05 May 06:46:38 06:49:30 18° 248° (WSW) 06:52:20 435.215
Cosmos 2504 05 May 06:48:13 06:54:35 28° 67° (ENE) 07:01:17 435.465 / 435.565
YUBILEINY 05 May 06:49:08 06:57:53 88° 263° (W) 07:06:38 435.215
CUTE-I 05 May 06:54:25 06:58:34 23° 93° (E) 07:02:42 437.470
GOMX 1 05 May 06:58:21 07:01:01 14° 86° (E) 07:03:38 467.674
CUBESAT XI-V 05 May 07:18:44 07:21:59 19° 269° (W) 07:25:17 437.345
NOAA 15 05 May 07:27:47 07:33:06 65° 102° (ESE) 07:38:22 137.62
NOAA 18 05 May 07:27:54 07:33:16 55° 101° (ESE) 07:38:36 137.9125
PRISM 05 May 07:35:01 07:37:04 14° 60° (ENE) 07:39:05 437.425
Cosmos 2491 05 May 07:35:11 07:44:01 85° 96° (E) 07:52:55 435.465 / 435.565
BRITE-PL 05 May 07:35:30 07:41:10 58° 100° (E) 07:46:39 437.365/2234.400
Cubesat XI-IV 05 May 07:38:56 07:44:10 55° 101° (E) 07:49:23 437.490
AO-7 05 May 07:52:18 07:58:04 21° 313° (NW) 08:03:52 29.400- 29.500
STRAND 1 05 May 07:58:18 08:03:24 76° 257° (WSW) 08:08:31 437.568
HORYU 2 05 May 07:59:12 08:00:59 12° 302° (WNW) 08:02:47 437.375
SO-50 05 May 08:05:42 08:10:35 65° 308° (NW) 08:15:30 436.795
LilacSat-2 05 May 08:11:42 08:15:28 59° 286° (WNW) 08:19:10 437.200
ISS 05 May 08:11:50 08:15:06 77° 332° (NNW) 08:18:22 145.825
DOVE 4 05 May 08:17:48 08:22:30 35° 95° (E) 08:26:55 437.250
CUTE 1.7 + AOD 2 05 May 08:29:50 08:31:42 13° 89° (E) 08:33:32 437.475
CUTE-I 05 May 08:33:45 08:38:55 52° 290° (WNW) 08:44:03 437.470
GOMX 1 05 May 08:34:21 08:39:50 85° 285° (WNW) 08:45:02 467.674
M-CUBED/EXP-1 PRIME 05 May 08:35:27 08:39:14 45° 104° (ESE) 08:42:41 437.505
Cosmos 2504 05 May 08:40:58 08:48:29 65° 267° (W) 08:56:33 435.465 / 435.565
CINEMA 3 05 May 08:43:01 08:46:18 19° 90° (E) 08:49:30 145.822/145.860
RS-15 05 May 08:44:32 08:55:21 39° 254° (WSW) 09:06:12 29.354- 29.394
YUBILEINY 05 May 08:47:48 08:53:24 19° 284° (WNW) 08:59:01 435.215
COMPASS 1 05 May 08:51:26 08:52:40 11° 88° (E) 08:53:54 437.405
SEEDS 05 May 08:51:43 08:54:21 16° 91° (E) 08:56:57 437.485
AUBIESAT-1 05 May 08:51:46 08:55:34 58° 105° (ESE) 08:59:05 437.475
PRISM 05 May 09:07:49 09:11:52 63° 258° (WSW) 09:15:58 437.425
NOAA 15 05 May 09:08:36 09:12:23 20° 300° (WNW) 09:16:10 137.62
NOAA 18 05 May 09:09:18 09:13:34 24° 299° (WNW) 09:17:49 137.9125
CUBEBUG 2 05 May 09:13:36 09:15:20 12° 88° (E) 09:17:03 437.445
BRITE-PL 05 May 09:14:41 09:19:11 25° 297° (WNW) 09:23:36 437.365/2234.400
AAUSAT CUBESAT 2 05 May 09:18:15 09:21:07 18° 92° (E) 09:23:59 437.432
Cubesat XI-IV 05 May 09:19:47 09:23:53 23° 298° (WNW) 09:27:58 437.490
HO-68 05 May 09:27:27 09:34:28 55° 101° (E) 09:41:26 435.675
ANTELSAT 05 May 09:31:05 09:33:09 13° 60° (ENE) 09:35:12 437.575/2403.000
CANX-2 05 May 09:31:26 09:35:39 66° 101° (ESE) 09:39:50 2200.000
Cosmos 2491 05 May 09:35:16 09:42:02 24° 299° (WNW) 09:48:52 435.465 / 435.565
PHONESAT 2.4 05 May 09:40:34 09:42:27 15° 156° (SSE) 09:44:19 2401.200-2431.200
SO-50 05 May 09:49:00 09:52:01 16° 329° (NNW) 09:55:00 436.795
ISS 05 May 09:49:03 09:51:54 27° 351° (N) 09:54:46 145.825
DOVE 4 05 May 09:55:38 10:00:05 30° 294° (WNW) 10:04:19 437.250
Oscar 11 05 May 10:00:44 10:04:05 22° 93° (E) 10:07:26 145.826/435.025
CUTE 1.7 + AOD 2 05 May 10:03:46 10:07:58 63° 286° (WNW) 10:12:07 437.475
DELFI C3 05 May 10:10:45 10:12:37 13° 90° (E) 10:14:28 145.870
M-CUBED/EXP-1 PRIME 05 May 10:10:55 10:13:24 16° 304° (NW) 10:15:46 437.505
GOMX 1 05 May 10:14:15 10:17:01 14° 303° (WNW) 10:19:44 467.674
FUNcube-1 05 May 10:16:08 10:19:37 25° 94° (E) 10:23:03 145.935
CINEMA 3 05 May 10:19:19 10:23:44 45° 289° (WNW) 10:27:56 145.822/145.860
UNISAT 6 05 May 10:22:51 10:27:09 39° 70° (ENE) 10:31:23 437.425
COMPASS 1 05 May 10:24:33 10:28:42 70° 286° (WNW) 10:32:51 437.405
SEEDS 05 May 10:26:16 10:30:19 48° 288° (WNW) 10:34:22 437.485
AUBIESAT-1 05 May 10:27:39 10:29:33 13° 306° (NW) 10:31:24 437.475
QB50P2 05 May 10:31:34 10:32:40 11° 59° (ENE) 10:33:46 145.880/145.840
POLYITAN 1 05 May 10:33:38 10:34:51 11° 59° (ENE) 10:36:05 437.675
UWE-3 05 May 10:34:54 10:39:08 64° 100° (E) 10:43:15 435.000/436.395/437.385
POPSAT HIP 1 05 May 10:35:24 10:36:42 11° 59° (ENE) 10:38:01 437.405
QB50P1 05 May 10:37:56 10:39:37 12° 60° (ENE) 10:41:18 145.935-145.965
Cosmos 2504 05 May 10:38:07 10:40:25 12° 286° (WNW) 10:42:45 435.465 / 435.565
GONETS M04 05 May 10:38:10 10:44:58 24° 61° (ENE) 10:51:41
TIGRISAT 05 May 10:39:11 10:43:41 53° 72° (ENE) 10:48:07 435.000
Cosmos 2499 05 May 10:47:45 10:51:31 14° 57° (ENE) 10:55:23 435.465 / 435.565
CUBEBUG 2 05 May 10:48:11 10:52:29 65° 286° (WNW) 10:56:37 437.445
AAUSAT CUBESAT 2 05 May 10:52:53 10:56:49 42° 289° (WNW) 11:00:44 437.432
ZACube-1 05 May 10:59:25 11:03:38 80° 101° (E) 11:07:47 437.345
ANTELSAT 05 May 11:04:37 11:09:15 82° 257° (WSW) 11:13:49 437.575/2403.000
CANX-2 05 May 11:08:54 11:11:00 14° 299° (WNW) 11:13:05 2200.000
NANOSAT C BR1 05 May 11:09:12 11:12:36 23° 66° (ENE) 11:16:00 145.865
HO-68 05 May 11:15:38 11:21:53 34° 300° (WNW) 11:28:07 435.675
PHONESAT 2.4 05 May 11:15:56 11:18:47 32° 172° (S) 11:21:38 2401.200-2431.200
ISS 05 May 11:26:06 11:29:00 28° 11° (N) 11:31:55 145.825
Oscar 11 05 May 11:36:22 11:40:20 37° 291° (WNW) 11:44:18 145.826/435.025
HUMSAT D 05 May 11:38:58 11:42:59 54° 100° (E) 11:46:59 437.325/437.525
DELFI C3 05 May 11:43:55 11:47:50 55° 287° (WNW) 11:51:45 145.870
AO-85 05 May 11:48:51 11:52:29 18° 109° (ESE) 11:56:06 145.980
FUNcube-1 05 May 11:52:13 11:55:53 30° 292° (WNW) 11:59:29 145.935
DUCHIFAT 1 05 May 11:59:15 12:03:29 72° 75° (ENE) 12:07:45 145.980
UNISAT 6 05 May 12:00:15 12:03:58 24° 266° (W) 12:07:39 437.425
AISAT 05 May 12:00:20 12:02:50 15° 90° (E) 12:05:19 437.250
QB50P2 05 May 12:03:30 12:07:48 88° 258° (WSW) 12:12:07 145.880/145.840
AIST 1 05 May 12:04:08 12:08:34 89° 79° (E) 12:12:58
POLYITAN 1 05 May 12:05:41 12:09:59 87° 251° (WSW) 12:14:19 437.675
POPSAT HIP 1 05 May 12:07:32 12:11:50 85° 259° (W) 12:16:09 437.405
QB50P1 05 May 12:10:30 12:14:47 79° 256° (WSW) 12:19:06 145.935-145.965
UWE-3 05 May 12:12:55 12:15:05 14° 299° (WNW) 12:17:12 435.000/436.395/437.385
TIGRISAT 05 May 12:17:36 12:20:40 17° 269° (W) 12:23:42 435.000
50 SAT 05 May 12:25:21 12:28:27 25° 96° (E) 12:31:33 437.505
CUBEBUG 1 05 May 12:28:19 12:32:06 27° 95° (E) 12:35:50 437.445
ESTCUBE 1 05 May 12:28:56 12:33:11 38° 98° (E) 12:37:24 437.505/2401.250
BUGSAT 1 05 May 12:29:25 12:33:39 76° 76° (ENE) 12:37:56 437.445
GONETS M04 05 May 12:34:08 12:42:56 83° 264° (W) 12:51:37
ZACube-1 05 May 12:38:02 12:39:17 11° 301° (WNW) 12:40:33 437.345
Cosmos 2499 05 May 12:38:28 12:46:12 66° 78° (ENE) 12:54:31 435.465 / 435.565
NANOSAT C BR1 05 May 12:44:13 12:48:09 35° 263° (W) 12:52:06 145.865
JAS-2 05 May 12:46:42 12:52:26 39° 63° (ENE) 12:58:51 435.910
DX 1 05 May 12:50:02 12:54:10 38° 98° (E) 12:58:15 434.975-435.025
UKube-1 05 May 12:51:24 12:55:20 32° 97° (E) 12:59:14 .
PHONESAT 2.4 05 May 12:52:27 12:55:17 30° 189° (S) 12:58:07 2401.200-2431.200
ISS 05 May 13:02:29 13:05:46 88° 209° (SSW) 13:09:01 145.825
VELOX 1 05 May 13:02:43 13:07:10 60° 101° (E) 13:11:34 145.980
HUMSAT D 05 May 13:15:53 13:18:12 15° 298° (WNW) 13:20:30 437.325/437.525
SPROUT 05 May 13:16:01 13:19:54 32° 96° (E) 13:23:45 437.525
AO-7 05 May 13:21:52 13:24:23 12° 36° (NE) 13:26:55 29.400- 29.500
Oscar 19 05 May 13:23:29 13:28:21 43° 68° (ENE) 13:33:15 437.125/150
AO-85 05 May 13:26:58 13:32:28 78° 307° (NW) 13:37:51 145.980
AISAT 05 May 13:35:18 13:39:43 61° 288° (WNW) 13:44:07 437.250
DUCHIFAT 1 05 May 13:38:20 13:39:41 11° 272° (W) 13:41:02 145.980
TISAT 1 05 May 13:40:11 13:43:06 18° 92° (E) 13:45:59 437.305
Gurwin Techsat 1B 05 May 13:41:17 13:45:43 28° 64° (ENE) 13:50:10 435.225
50 SAT 05 May 13:59:13 14:02:09 23° 293° (WNW) 14:05:06 437.505
CUBEBUG 1 05 May 14:04:26 14:08:24 32° 292° (WNW) 14:12:21 437.445
ESTCUBE 1 05 May 14:06:08 14:09:48 25° 295° (WNW) 14:13:28 437.505/2401.250
BUGSAT 1 05 May 14:08:34 14:09:34 11° 272° (W) 14:10:33 437.445
DX 1 05 May 14:26:41 14:30:09 23° 296° (WNW) 14:33:35 434.975-435.025
UKube-1 05 May 14:27:38 14:31:16 26° 294° (WNW) 14:34:51 .
PHONESAT 2.4 05 May 14:29:58 14:31:35 13° 205° (SSW) 14:33:12 2401.200-2431.200
JAS-2 05 May 14:31:40 14:37:25 41° 265° (W) 14:43:56 435.910
Cosmos 2499 05 May 14:32:28 14:38:46 28° 277° (W) 14:45:25 435.465 / 435.565
GONETS M04 05 May 14:33:05 14:38:18 18° 285° (WNW) 14:43:31
ISS 05 May 14:40:08 14:41:46 13° 227° (SW) 14:43:25 145.825
VELOX 1 05 May 14:40:23 14:43:10 16° 299° (WNW) 14:45:56 145.980
O/OREOS (USA 219) 05 May 14:43:14 14:47:27 37° 106° (ESE) 14:51:39 437.305
ITAMSAT 1 05 May 14:48:17 14:53:12 45° 68° (ENE) 14:58:06 435.822/435.867
SPROUT 05 May 14:52:12 14:55:44 25° 294° (WNW) 14:59:15 437.525
SO-50 05 May 14:55:22 14:59:40 32° 43° (NE) 15:03:49 436.795
ITUPSAT 1 05 May 14:56:20 15:00:04 22° 93° (E) 15:03:47 437.325
Oscar 19 05 May 15:03:29 15:07:49 27° 266° (W) 15:12:11 437.125/150
SWISSCUBE 05 May 15:03:51 15:08:02 29° 96° (E) 15:12:11 437.505
AO-7 05 May 15:07:22 15:14:59 43° 59° (ENE) 15:22:37 29.400- 29.500
AO-85 05 May 15:09:51 15:13:47 20° 326° (NW) 15:17:38 145.980
TISAT 1 05 May 15:14:57 15:18:59 44° 290° (WNW) 15:22:58 437.305
PCSat 05 May 15:16:26 15:21:09 31° 110° (ESE) 15:25:53 145.827
Gurwin Techsat 1B 05 May 15:20:25 15:25:27 44° 261° (W) 15:30:33 435.225
CUSAT 1 05 May 15:31:38 15:35:19 54° 94° (E) 15:40:12 437.405
BEESAT 05 May 15:36:22 15:41:04 55° 101° (E) 15:45:44 436.000
HORYU 2 05 May 15:47:06 15:48:49 12° 58° (ENE) 15:50:33 437.375
Cosmos 2491 05 May 15:51:09 15:52:09 10° 46° (NE) 15:53:08 435.465 / 435.565
O/OREOS (USA 219) 05 May 16:23:00 16:26:56 27° 305° (NW) 16:30:51 437.305
ITAMSAT 1 05 May 16:28:39 16:32:51 25° 266° (W) 16:37:05 435.822/435.867
ITUPSAT 1 05 May 16:33:34 16:38:06 44° 290° (WNW) 16:42:37 437.325
SO-50 05 May 16:35:50 16:40:15 40° 243° (WSW) 16:44:31 436.795
SWISSCUBE 05 May 16:41:34 16:45:50 34° 293° (WNW) 16:50:06 437.505
DANDE 05 May 16:41:48 16:44:54 62° 284° (WNW) 16:48:56 436.750
KKS-1 05 May 16:53:19 16:57:37 45° 99° (E) 17:01:52 437.445
PCSat 05 May 16:59:12 17:04:23 44° 309° (NW) 17:09:37 145.827
AO-7 05 May 16:59:41 17:07:38 50° 259° (W) 17:15:40 29.400- 29.500
STARS 05 May 17:02:06 17:05:58 29° 96° (E) 17:09:47 437.465
NOAA 15 05 May 17:12:19 17:15:57 19° 59° (ENE) 17:19:37 137.62
BRITE-PL 05 May 17:13:32 17:15:24 12° 54° (NE) 17:17:18 437.365/2234.400
BEESAT 05 May 17:15:06 17:18:28 19° 298° (WNW) 17:21:49 436.000
CUSAT 1 05 May 17:15:40 17:18:15 16° 303° (WNW) 17:21:14 437.405
NOAA 18 05 May 17:17:44 17:21:42 21° 59° (ENE) 17:25:38 137.9125
MOZHAYETS 4 05 May 17:18:00 17:22:30 55° 100° (E) 17:27:00
HORYU 2 05 May 17:20:15 17:24:43 85° 252° (WSW) 17:29:13 437.375
Cubesat XI-IV 05 May 17:25:32 17:28:53 17° 58° (ENE) 17:32:14 437.490
CUBESAT XI-V 05 May 17:37:02 17:38:03 11° 87° (E) 17:39:04 437.345
